Find Starlink 5732

NORAD ID: 55572 Int'l Des: 2023-020 Owner: SPXS Country: US Constellation: starlink operational
LEOCIRCULAR

实时位置

正在加载3D地球...

关于 Starlink 5732

正在加载描述...

即将过境

Passes for default location (London). Set your location on the main map for personalized predictions.

高度历史

Loading altitude history...

两行轨道根数

1 55572U 23020D 26126.03567000 .00001086 00000-0 48971-4 0 9997
2 55572 43.0046 44.7150 0001354 269.5972 90.4725 15.27579017177643
Epoch: May 6, 2026 • Age: 14 hours

当前状态

高度 493.5 km
速度 7.62 km/s
星下点 -38.22°S, 100.59°W
发射日期 Feb 12, 2023
运行时间 3.2 years
类型 internet

技术详情

分类 Payload
质量 305.00 kg
干质量 290.00 kg
总质量 305.00 kg
长度 0.20 m
直径 2.80 m
跨度 9.00 m
形状 Box + pan
制造商 SPXS
平台类型 Starlink
阶段状态 In Orbit
所有者/国家 SPXS/US

Most Searched